Вернуться в каталог

SL-12 R/B(2)

АктивенGEO
NORAD 23778·ROCKET BODY·🇷🇺 Russia

Запущен Jan 25, 1996 с Baikonur Cosmodrome

Loading…

TLE

СвежийSource: Space-Track

Эпоха: Sep 14, 2026, 12:55 UTC

1 23778U 96005D   26257.53839737 -.00000189  00000-0  00000+0 0  9992
2 23778  15.3315 356.7268 0014074 199.4529 165.9649  0.97673130109252

Отслеживайте SL-12 R/B(2) в реальном времени с AllMySat

Download on the App Store